N2324K KALB-KFRG

Flight info

Callsign N2324K
Flight time N/A
Altitude 4000
Route ALB PAWLN1
Aircraft BE58/L-SDFGRY/C

Departure

Time 2026-04-29 23:24
Airport Albany International Airport (KALB)

Arrival

Time N/A
Airport Republic Airport (KFRG)
Time Latitude Longitude Altitude Speed Heading
2026-04-29 23:02 42.75089 -73.81085 283 ft 0 kts 210°
2026-04-29 23:13 42.75101 -73.81076 283 ft 0 kts 210°
2026-04-29 23:16 42.75087 -73.81069 284 ft 6 kts 143°
2026-04-29 23:16 42.75077 -73.81034 284 ft 4 kts 109°
2026-04-29 23:16 42.75063 -73.80984 285 ft 6 kts 95°
2026-04-29 23:17 42.75059 -73.80881 284 ft 12 kts 115°
2026-04-29 23:17 42.75034 -73.80799 282 ft 13 kts 83°
2026-04-29 23:17 42.75044 -73.80668 279 ft 14 kts 76°
2026-04-29 23:17 42.75096 -73.80632 280 ft 11 kts 351°
2026-04-29 23:18 42.75162 -73.80640 281 ft 9 kts 357°
2026-04-29 23:18 42.75237 -73.80642 281 ft 14 kts 358°
2026-04-29 23:18 42.75377 -73.80647 280 ft 23 kts 358°
2026-04-29 23:18 42.75520 -73.80654 283 ft 18 kts 359°
2026-04-29 23:19 42.75635 -73.80659 284 ft 17 kts 358°
2026-04-29 23:19 42.75751 -73.80663 282 ft 16 kts 358°
2026-04-29 23:19 42.75853 -73.80669 283 ft 13 kts 356°
2026-04-29 23:19 42.75933 -73.80675 284 ft 11 kts 358°
2026-04-29 23:20 42.75942 -73.80676 284 ft 0 kts 358°
2026-04-29 23:20 42.75961 -73.80677 284 ft 8 kts 358°
2026-04-29 23:20 42.76016 -73.80670 283 ft 8 kts 29°
2026-04-29 23:20 42.76027 -73.80660 283 ft 0 kts 40°
2026-04-29 23:22 42.76033 -73.80646 283 ft 0 kts 69°
2026-04-29 23:23 42.76037 -73.80589 284 ft 13 kts 98°
2026-04-29 23:23 42.75875 -73.80519 285 ft 63 kts 180°
2026-04-29 23:23 42.75186 -73.80504 472 ft 118 kts 182°
2026-04-29 23:24 42.74353 -73.80518 1090 ft 121 kts 190°
2026-04-29 23:24 42.73463 -73.80521 1630 ft 131 kts 176°
2026-04-29 23:24 42.72573 -73.80318 2216 ft 131 kts 189°
2026-04-29 23:24 42.71714 -73.80662 2827 ft 127 kts 206°
2026-04-29 23:25 42.70822 -73.80789 3413 ft 138 kts 170°
2026-04-29 23:25 42.69845 -73.80247 3502 ft 167 kts 177°
2026-04-29 23:25 42.68688 -73.80173 3891 ft 163 kts 182°
2026-04-29 23:25 42.67520 -73.80085 4131 ft 172 kts 182°
2026-04-29 23:26 42.66351 -73.79986 4291 ft 185 kts 177°
2026-04-29 23:26 42.65091 -73.79859 4575 ft 176 kts 181°
2026-04-29 23:26 42.63850 -73.79917 4310 ft 183 kts 188°
2026-04-29 23:26 42.62594 -73.80136 4133 ft 182 kts 194°
2026-04-29 23:27 42.61336 -73.80499 3806 ft 186 kts 200°
2026-04-29 23:27 42.60228 -73.81152 4061 ft 159 kts 211°
2026-04-29 23:27 42.59237 -73.81887 3967 ft 166 kts 212°
2026-04-29 23:27 42.58142 -73.82231 3979 ft 171 kts 173°
2026-04-29 23:28 42.57065 -73.81499 3955 ft 175 kts 153°
2026-04-29 23:28 42.55964 -73.80823 3943 ft 172 kts 168°
2026-04-29 23:28 42.54794 -73.80652 3938 ft 168 kts 184°
2026-04-29 23:28 42.53631 -73.80682 3941 ft 167 kts 185°
2026-04-29 23:29 42.52464 -73.80714 3937 ft 168 kts 185°
2026-04-29 23:29 42.51295 -73.80737 3940 ft 168 kts 184°
2026-04-29 23:29 42.50129 -73.80757 3936 ft 167 kts 185°
2026-04-29 23:29 42.48964 -73.80779 3939 ft 168 kts 184°
2026-04-29 23:30 42.47795 -73.80799 3938 ft 167 kts 185°
2026-04-29 23:30 42.46630 -73.80821 3939 ft 168 kts 185°
2026-04-29 23:30 42.45460 -73.80841 3938 ft 168 kts 185°
2026-04-29 23:30 42.44288 -73.80862 3939 ft 169 kts 185°
2026-04-29 23:31 42.43107 -73.80884 3937 ft 172 kts 185°
2026-04-29 23:31 42.41894 -73.80907 3938 ft 176 kts 185°
2026-04-29 23:31 42.40659 -73.80928 3938 ft 178 kts 185°
2026-04-29 23:31 42.39418 -73.80949 3938 ft 178 kts 185°
2026-04-29 23:32 42.38172 -73.80972 3939 ft 179 kts 184°
2026-04-29 23:32 42.36939 -73.80993 3939 ft 180 kts 185°
2026-04-29 23:32 42.35693 -73.81012 3946 ft 179 kts 185°
2026-04-29 23:32 42.34447 -73.81034 3959 ft 179 kts 185°
2026-04-29 23:33 42.33199 -73.81058 3968 ft 178 kts 184°
2026-04-29 23:33 42.31954 -73.81081 3974 ft 179 kts 185°
2026-04-29 23:33 42.30710 -73.81105 3962 ft 179 kts 184°
2026-04-29 23:33 42.29472 -73.81125 4010 ft 177 kts 185°
2026-04-29 23:34 42.28252 -73.81146 4059 ft 175 kts 185°
2026-04-29 23:34 42.27024 -73.81169 4057 ft 177 kts 184°
2026-04-29 23:34 42.25787 -73.81191 4059 ft 178 kts 185°
2026-04-29 23:34 42.24545 -73.81144 4058 ft 181 kts 172°
2026-04-29 23:35 42.23339 -73.80620 4059 ft 182 kts 163°
2026-04-29 23:35 42.22138 -73.80062 4060 ft 183 kts 165°
2026-04-29 23:35 42.20930 -73.79523 4060 ft 183 kts 166°
2026-04-29 23:35 42.19716 -73.78984 4061 ft 183 kts 165°
2026-04-29 23:36 42.18503 -73.78444 4060 ft 184 kts 166°
2026-04-29 23:36 42.17292 -73.77904 4061 ft 183 kts 165°
2026-04-29 23:36 42.16094 -73.77371 4059 ft 184 kts 165°
2026-04-29 23:36 42.14877 -73.76830 4058 ft 184 kts 165°
2026-04-29 23:37 42.13663 -73.76289 4057 ft 183 kts 165°
2026-04-29 23:37 42.12454 -73.75750 4059 ft 183 kts 165°
2026-04-29 23:37 42.11241 -73.75212 4057 ft 183 kts 165°
2026-04-29 23:37 42.10031 -73.74674 4057 ft 183 kts 165°
2026-04-29 23:38 42.08821 -73.74137 4057 ft 183 kts 165°
2026-04-29 23:38 42.07606 -73.73597 4057 ft 183 kts 165°
2026-04-29 23:38 42.06395 -73.73060 4058 ft 183 kts 165°
2026-04-29 23:38 42.05182 -73.72523 4059 ft 184 kts 165°
2026-04-29 23:39 42.03970 -73.71985 4058 ft 183 kts 165°
2026-04-29 23:39 42.02761 -73.71450 4056 ft 183 kts 165°
2026-04-29 23:39 42.01552 -73.70911 4050 ft 182 kts 165°
2026-04-29 23:39 42.00343 -73.70373 4052 ft 183 kts 165°
2026-04-29 23:40 41.99129 -73.69841 4054 ft 183 kts 166°
2026-04-29 23:40 41.97916 -73.69303 4054 ft 184 kts 165°
2026-04-29 23:40 41.96697 -73.68764 4055 ft 185 kts 166°
2026-04-29 23:40 41.95490 -73.68221 4048 ft 183 kts 165°
2026-04-29 23:41 41.94278 -73.67689 4046 ft 183 kts 167°
2026-04-29 23:41 41.93083 -73.67172 4050 ft 183 kts 166°
2026-04-29 23:41 41.91870 -73.66635 4052 ft 184 kts 165°
2026-04-29 23:41 41.90638 -73.66088 4053 ft 184 kts 165°
2026-04-29 23:42 41.89435 -73.65556 4055 ft 184 kts 165°
2026-04-29 23:42 41.88214 -73.65017 4054 ft 185 kts 166°
2026-04-29 23:42 41.86994 -73.64479 4054 ft 185 kts 165°
2026-04-29 23:42 41.85773 -73.63940 4055 ft 184 kts 165°
2026-04-29 23:43 41.84556 -73.63404 4056 ft 184 kts 165°
2026-04-29 23:43 41.83340 -73.62869 4056 ft 184 kts 165°
2026-04-29 23:43 41.82128 -73.62335 4055 ft 183 kts 165°
2026-04-29 23:43 41.80921 -73.61804 4054 ft 183 kts 165°
2026-04-29 23:44 41.79714 -73.61275 4053 ft 180 kts 166°
2026-04-29 23:44 41.78514 -73.60748 4051 ft 182 kts 165°
2026-04-29 23:44 41.77315 -73.60211 4043 ft 181 kts 165°
2026-04-29 23:44 41.76141 -73.59613 4050 ft 179 kts 163°
2026-04-29 23:45 41.74960 -73.59059 4050 ft 181 kts 164°
2026-04-29 23:45 41.73784 -73.58493 4053 ft 179 kts 163°
2026-04-29 23:45 41.72617 -73.57938 4054 ft 181 kts 163°
2026-04-29 23:45 41.71431 -73.57359 4055 ft 182 kts 163°
2026-04-29 23:46 41.70234 -73.56772 4056 ft 183 kts 163°
2026-04-29 23:46 41.69038 -73.56190 4054 ft 182 kts 163°
2026-04-29 23:46 41.67845 -73.55603 4059 ft 184 kts 163°
2026-04-29 23:46 41.66638 -73.55011 4060 ft 185 kts 164°
2026-04-29 23:47 41.65428 -73.54423 4058 ft 185 kts 163°
2026-04-29 23:47 41.64216 -73.53830 4058 ft 185 kts 163°
2026-04-29 23:47 41.63004 -73.53243 4054 ft 185 kts 163°
2026-04-29 23:47 41.61799 -73.52656 4058 ft 184 kts 163°
2026-04-29 23:48 41.60592 -73.52069 4056 ft 184 kts 163°
2026-04-29 23:48 41.59408 -73.51493 4052 ft 184 kts 163°
2026-04-29 23:48 41.58206 -73.50911 4054 ft 183 kts 163°
2026-04-29 23:48 41.57004 -73.50331 4054 ft 184 kts 163°
2026-04-29 23:49 41.55799 -73.49739 4055 ft 185 kts 163°
2026-04-29 23:49 41.54589 -73.49152 4056 ft 186 kts 164°
2026-04-29 23:49 41.53425 -73.48407 4053 ft 186 kts 147°
2026-04-29 23:49 41.52384 -73.47372 4054 ft 187 kts 146°
2026-04-29 23:50 41.51353 -73.46340 4050 ft 183 kts 147°
2026-04-29 23:50 41.50313 -73.45346 4056 ft 184 kts 148°
2026-04-29 23:50 41.48222 -73.43338 4062 ft 186 kts 147°
2026-04-29 23:51 41.47174 -73.42321 4060 ft 186 kts 147°
2026-04-29 23:51 41.46140 -73.41317 4054 ft 185 kts 147°
2026-04-29 23:51 41.45103 -73.40316 4057 ft 184 kts 147°
2026-04-29 23:51 41.44057 -73.39309 4060 ft 186 kts 147°
2026-04-29 23:52 41.43010 -73.38298 4058 ft 186 kts 147°
2026-04-29 23:52 41.41961 -73.37285 4061 ft 186 kts 147°
2026-04-29 23:52 41.40906 -73.36266 4060 ft 188 kts 147°
2026-04-29 23:52 41.39845 -73.35244 4060 ft 188 kts 147°
2026-04-29 23:53 41.38787 -73.34222 4059 ft 188 kts 147°
2026-04-29 23:53 41.37729 -73.33204 4059 ft 188 kts 147°
2026-04-29 23:53 41.36673 -73.32187 4059 ft 187 kts 147°
2026-04-29 23:53 41.35619 -73.31171 4060 ft 187 kts 147°
2026-04-29 23:54 41.34564 -73.30157 4058 ft 188 kts 147°
2026-04-29 23:54 41.33504 -73.29137 4057 ft 187 kts 147°
2026-04-29 23:54 41.32451 -73.28125 4056 ft 187 kts 147°
2026-04-29 23:54 41.31397 -73.27111 4059 ft 187 kts 147°
2026-04-29 23:55 41.30338 -73.26095 4060 ft 188 kts 147°
2026-04-29 23:55 41.29292 -73.25090 4057 ft 188 kts 147°
2026-04-29 23:55 41.28230 -73.24069 4057 ft 189 kts 147°
2026-04-29 23:55 41.27175 -73.23056 3833 ft 185 kts 147°
2026-04-29 23:56 41.26169 -73.22093 3664 ft 181 kts 146°
2026-04-29 23:56 41.25175 -73.21139 3419 ft 171 kts 146°
2026-04-29 23:56 41.24226 -73.20228 3167 ft 166 kts 146°
2026-04-29 23:56 41.23300 -73.19342 2909 ft 163 kts 145°
2026-04-29 23:57 41.22697 -73.18765 2741 ft 161 kts 145°
2026-04-29 23:57 41.21798 -73.17903 2486 ft 159 kts 144°
2026-04-29 23:57 41.20904 -73.17047 2226 ft 158 kts 145°
2026-04-29 23:57 41.20007 -73.16190 2001 ft 159 kts 145°
2026-04-29 23:58 41.19136 -73.15356 1993 ft 150 kts 144°
2026-04-29 23:58 41.18300 -73.14556 1984 ft 146 kts 144°
2026-04-29 23:58 41.17480 -73.13771 1985 ft 145 kts 145°
2026-04-29 23:58 41.16660 -73.12987 1988 ft 147 kts 145°
2026-04-29 23:59 41.15859 -73.12140 1994 ft 148 kts 134°
2026-04-29 23:59 41.15153 -73.11111 2000 ft 156 kts 134°
2026-04-29 23:59 41.14386 -73.10041 2006 ft 163 kts 134°
2026-04-29 23:59 41.13601 -73.08934 2011 ft 166 kts 134°
2026-04-30 00:00 41.12801 -73.07803 2008 ft 169 kts 134°
2026-04-30 00:00 41.11902 -73.06829 2007 ft 169 kts 159°
2026-04-30 00:00 41.10737 -73.06879 2009 ft 172 kts 195°
2026-04-30 00:00 41.09677 -73.07649 2010 ft 175 kts 209°
2026-04-30 00:01 41.08640 -73.08497 1998 ft 176 kts 207°
2026-04-30 00:01 41.07596 -73.09290 2000 ft 175 kts 206°
2026-04-30 00:01 41.06534 -73.10080 1999 ft 175 kts 206°
2026-04-30 00:01 41.05472 -73.10870 2003 ft 175 kts 206°
2026-04-30 00:02 41.04408 -73.11663 2002 ft 176 kts 206°
2026-04-30 00:02 41.03344 -73.12455 2003 ft 176 kts 206°
2026-04-30 00:02 41.02276 -73.13250 1994 ft 176 kts 206°
2026-04-30 00:02 41.01208 -73.14044 1994 ft 176 kts 206°
2026-04-30 00:03 41.00143 -73.14836 1997 ft 175 kts 206°
2026-04-30 00:03 40.99080 -73.15626 1997 ft 176 kts 206°
2026-04-30 00:03 40.98013 -73.16419 1997 ft 176 kts 206°
2026-04-30 00:03 40.96950 -73.17209 1998 ft 175 kts 206°
2026-04-30 00:04 40.95888 -73.17997 1996 ft 175 kts 206°